Regional Weather Roundup
Issued by NWS

Home | Current Version | Previous Version | Text Only | Print | Product List | Glossary On
Versions: 1 2 3 4 5 6 7 8 9 10 11 12 13 14 15 16 17 18 19 20 21 22 23 24 25 26 27 28 29 30 31 32 33 34 35 36 37 38 39 40 41 42 43 44 45 46 47 48 49 50
000
ASUS45 KABQ 021710
RWRNM
NEW MEXICO REGIONAL WEATHER ROUNDUP
NATIONAL WEATHER SERVICE ALBUQUERQUE NM
1100 AM MDT TUE JUN 02 2015

NOTE: "FAIR" MEANS FEW OR NO CLOUDS BELOW 12,000 FEET AGL WITH NO
       SIGNIFICANT WEATHER OR OBSTRUCTIONS TO VISION.

      THIS PRODUCT IS RELEASED AS TWO VERSIONS.  ONE VERSION NEAR
      THE TOP OF THE HOUR CONTAINING PRELIMINARY DATA FROM ALBUQUERQUE
      AND OTHER STATIONS.  A FINAL VERSION WITH ADDITIONAL DATA IS
      ISSUED ABOUT 10 MINUTES AFTER THE HOUR.

NMZ501-503-504-510>518-021800-
NORTHWEST PLATEAU/NORTHCENTRAL MOUNTAINS

CITY           SKY/WX    TMP DP  RH WIND       PRES   REMARKS
FARMINGTON     SUNNY     77  23  13 N3        30.13F
LOS ALAMOS     MOSUNNY   70  41  35 SE3       30.26S
SANTA FE       MOSUNNY   78  31  17 W10       30.19F
TAOS           MOSUNNY   68  36  30 W5        30.26S
ANGEL FIRE     FAIR      64  28  25 W10G21    30.32S

$$
NMZ402-403-502-505>509-021800-
WESTCENTRAL MOUNTAINS/SOUTHWEST MOUNTAINS

CITY           SKY/WX    TMP DP  RH WIND       PRES   REMARKS
GALLUP         SUNNY     75  26  16 W16G25    30.21F
GRANTS         SUNNY     75  19  12 CALM      30.23F
SILVER CITY      N/A     82  19   9 W10       30.19S

$$
NMZ407-409-411-412-021800-
SOUTHERN DESERTS

CITY           SKY/WX    TMP DP  RH WIND       PRES   REMARKS
LORDSBURG      FAIR      84  27  12 W5        30.11F
DEMING         SUNNY     87  26  11 W8        30.10F
LAS CRUCES     SUNNY     86  40  19 E3        30.11S
HOLLOMAN AFB   SUNNY     86  43  22 VRB1      30.06F
ALAMOGORDO     SUNNY     86  41  20 SW6       30.08S
T OR C         SUNNY     84  29  13 VRB3      30.11F

$$
NMZ519>523-021800-
CENTRAL VALLEYS/CENTRAL HIGHLANDS

CITY           SKY/WX    TMP DP  RH WIND       PRES   REMARKS
ALBUQUERQUE    MOSUNNY   78  36  21 CALM      30.16F
DOUBLE EAGLE   MOSUNNY   75  34  22 S5        30.20S
MORIARTY ARPT  FAIR      77  24  14 NW3       30.21S
CLINES CORNERS MOSUNNY   74  25  16 W17G23    30.23S
BELEN          FAIR      78  32  18 N3        30.15F
SOCORRO        FAIR      82  26  12 E6        30.12F

$$
NMZ524>526-539-540-021800-
SOUTHCENTRAL MOUNTAINS

CITY           SKY/WX    TMP DP  RH WIND       PRES   REMARKS
RUIDOSO        SUNNY     79  36  21 N14G22    30.25S

$$
NMZ527>531-021800-
NORTHEAST HIGHLANDS/NORTHEAST PLAINS

CITY           SKY/WX    TMP DP  RH WIND       PRES   REMARKS
LAS VEGAS      MOSUNNY   76  31  19 SW17G23   30.19F
RATON          MOSUNNY   75  41  29 S8        30.11F
CLAYTON        SUNNY     83  53  35 SW8       30.01S

$$
NMZ532>537-021800-
EASTCENTRAL PLAINS

CITY           SKY/WX    TMP DP  RH WIND       PRES   REMARKS
TUCUMCARI      SUNNY     83  54  36 W10       30.00F
CANNON AFB     SUNNY     77  61  57 S9        30.05F
CLOVIS AIRPORT SUNNY     73  61  64 SW8         N/A

$$
NMZ028-029-538-021800-
SOUTHEAST PLAINS

CITY           SKY/WX    TMP DP  RH WIND       PRES   REMARKS
ROSWELL        SUNNY     84  56  38 CALM      30.01F
ARTESIA        SUNNY     82  59  44 S10       30.02S
CARLSBAD       SUNNY     84  61  45 SE9       30.00F
HOBBS          SUNNY     81  59  47 SE8       30.06S


$$



USA.gov is the U.S. government's official web portal to all federal, state and local government web resources and services.